Salem, IL

5:25 AM CDT on August 24, 2017 (GMT -0500)
Salem-Leckrone

Weather History for KSLO - February, 2013

Change the Weather History Date:

Saturday, February 2, 2013

  Actual Average Record
Temperature  
Mean Temperature 32 °F -  
Max Temperature 39 °F 42 °F 67 °F (2016)
Min Temperature 26 °F 21 °F -11 °F (1965)
Degree Days  
Heating Degree Days 32    
Moisture  
Dew Point 23 °F    
Average Humidity 69    
Maximum Humidity 82    
Minimum Humidity 58    
Precipitation  
Precipitation 0.00 in - - ()
Sea Level Pressure  
Sea Level Pressure 30.12 in    
Wind  
Wind Speed 11 mph (WSW)    
Max Wind Speed 16 mph    
Max Gust Speed 23 mph    
Visibility 10 miles    
Events Snow    
Averages and records for this station are not official NWS values.
T = Trace of Precipitation, MM = Missing Value Source: NWS Daily Summary

Daily Weather History Graph

Daily Weather History Graph

Search for Another Location

Airport or City:

Trip Planner

Search our weather history database for the weather conditions in past years. The results will help you decide how hot, cold, wet, or windy it might be!

Date:

Astronomy

Feb. 02, 2013 Rise Set
Actual Time 7:00 AM CST 5:19 PM CST
Civil Twilight 6:32 AM CST 5:47 PM CST
Nautical Twilight 6:00 AM CST 6:18 PM CST
Astronomical Twilight 5:29 AM CST 6:50 PM CST
Moon No Moon Rise 10:16 AM CST (2/2)
Length of Visible Light 11h 14m
Length of Day
10h 18m
Waning Gibbous, 59% of the Moon is Illuminated
Feb 2
Waning Gibbous
Feb 3
Last Quarter
Feb 10
New
Feb 17
First Quarter
Feb 25
Full

Hourly Weather History & Observations

Time (CST) Temp. Windchill Dew Point Humidity Pressure Visibility Wind Dir Wind Speed Gust Speed Precip Events Conditions
12:15 AM 27.0 °F 16.7 °F 16.7 °F 65% 30.26 in 10.0 mi SSW 11.5 mph - N/A   Overcast
12:35 AM 26.6 °F 15.7 °F 16.5 °F 66% 30.25 in 10.0 mi SSW 12.7 mph - N/A   Overcast
12:55 AM 27.0 °F 17.3 °F 16.9 °F 66% 30.24 in 10.0 mi South 10.4 mph - N/A   Overcast
1:15 AM 27.0 °F 18.0 °F 16.7 °F 65% 30.23 in 10.0 mi South 9.2 mph - N/A   Overcast
1:35 AM 26.6 °F 16.8 °F 17.6 °F 69% 30.23 in 10.0 mi SSW 10.4 mph - N/A   Overcast
1:55 AM 27.5 °F 17.4 °F 16.9 °F 64% 30.22 in 10.0 mi South 11.5 mph - N/A   Overcast
2:15 AM 27.5 °F 17.4 °F 16.2 °F 62% 30.21 in 10.0 mi South 11.5 mph 16.1 mph N/A   Overcast
2:35 AM 27.9 °F 17.8 °F 16.5 °F 62% 30.21 in 10.0 mi SSW 11.5 mph - N/A   Overcast
2:55 AM 27.9 °F 17.3 °F 17.4 °F 65% 30.20 in 10.0 mi SSW 12.7 mph 18.4 mph N/A   Overcast
3:15 AM 28.0 °F 17.0 °F 17.8 °F 65% 30.19 in 10.0 mi South 13.8 mph - N/A   Overcast
3:35 AM 28.4 °F 18.5 °F 18.1 °F 65% 30.17 in 10.0 mi SSW 11.5 mph - N/A   Overcast
3:55 AM 28.4 °F 18.5 °F 17.8 °F 64% 30.15 in 10.0 mi South 11.5 mph - N/A   Overcast
4:15 AM 28.4 °F 18.0 °F 19.0 °F 68% 30.15 in 10.0 mi South 12.7 mph 19.6 mph N/A   Overcast
4:35 AM 28.4 °F 18.0 °F 19.0 °F 68% 30.15 in 10.0 mi SSW 12.7 mph 19.6 mph N/A   Mostly Cloudy
4:55 AM 28.4 °F 18.0 °F 18.9 °F 67% 30.14 in 10.0 mi SSW 12.7 mph - N/A   Scattered Clouds
5:15 AM 28.4 °F 19.1 °F 19.0 °F 68% 30.14 in 10.0 mi SSW 10.4 mph - N/A   Scattered Clouds
5:35 AM 28.4 °F 20.4 °F 19.2 °F 69% 30.13 in 10.0 mi SSW 8.1 mph - N/A   Clear
5:55 AM 28.4 °F 21.2 °F 19.4 °F 69% 30.13 in 10.0 mi SSW 6.9 mph - N/A   Scattered Clouds
6:15 AM 28.4 °F 21.2 °F 19.8 °F 70% 30.13 in 10.0 mi SSW 6.9 mph - N/A   Mostly Cloudy
6:35 AM 29.1 °F 22.1 °F 19.6 °F 68% 30.12 in 10.0 mi SSW 6.9 mph - N/A   Overcast
6:55 AM 29.3 °F 20.2 °F 19.9 °F 68% 30.12 in 10.0 mi SSW 10.4 mph - N/A   Overcast
7:15 AM 29.7 °F 20.7 °F 20.1 °F 68% 30.12 in 10.0 mi SSW 10.4 mph - N/A   Overcast
7:35 AM 30.0 °F 21.1 °F 20.5 °F 68% 30.12 in 10.0 mi SSW 10.4 mph - N/A   Overcast
7:55 AM 30.2 °F 22.6 °F 20.8 °F 68% 30.11 in 10.0 mi SSW 8.1 mph - N/A   Overcast
8:15 AM 30.6 °F 23.1 °F 21.7 °F 70% 30.11 in 10.0 mi SSW 8.1 mph - N/A   Overcast
8:35 AM 30.9 °F 22.8 °F 21.7 °F 69% 30.10 in 10.0 mi SSW 9.2 mph - N/A   Mostly Cloudy
8:55 AM 32.0 °F 24.2 °F 23.0 °F 69% 30.09 in 10.0 mi SSW 9.2 mph - N/A   Overcast
9:15 AM 32.0 °F 22.5 °F 22.1 °F 67% 30.10 in 10.0 mi SW 12.7 mph - N/A   Overcast
9:35 AM 32.4 °F 24.6 °F 22.1 °F 66% 30.10 in 10.0 mi SW 9.2 mph - N/A   Overcast
9:55 AM 32.9 °F 25.3 °F 22.8 °F 66% 30.10 in 10.0 mi SW 9.2 mph - N/A   Overcast
10:15 AM 33.4 °F 25.4 °F 22.6 °F 65% 30.09 in 10.0 mi WSW 10.4 mph - N/A   Overcast
10:35 AM 34.3 °F 25.9 °F 23.0 °F 63% 30.09 in 10.0 mi WSW 11.5 mph - N/A   Overcast
10:55 AM 34.7 °F 26.4 °F 23.2 °F 63% 30.08 in 10.0 mi WSW 11.5 mph - N/A   Overcast
11:15 AM 35.8 °F 27.3 °F 23.9 °F 62% 30.08 in 10.0 mi WSW 12.7 mph 17.3 mph N/A   Mostly Cloudy
11:35 AM 35.8 °F 26.9 °F 24.4 °F 63% 30.07 in 10.0 mi West 13.8 mph - N/A   Overcast
11:55 AM 36.0 °F 27.5 °F 24.1 °F 62% 30.07 in 10.0 mi West 12.7 mph - N/A   Scattered Clouds
12:15 PM 35.8 °F 26.9 °F 24.1 °F 62% 30.06 in 10.0 mi West 13.8 mph 19.6 mph N/A   Scattered Clouds
12:35 PM 36.1 °F 27.7 °F 25.0 °F 64% 30.06 in 10.0 mi West 12.7 mph 18.4 mph N/A   Scattered Clouds
12:55 PM 36.9 °F 29.1 °F 26.1 °F 65% 30.06 in 10.0 mi West 11.5 mph - N/A   Clear
1:15 PM 37.8 °F 29.0 °F 26.4 °F 64% 30.05 in 10.0 mi West 15.0 mph - N/A   Clear
1:35 PM 37.6 °F 28.8 °F 25.7 °F 62% 30.05 in 10.0 mi West 15.0 mph 20.7 mph N/A   Clear
1:55 PM 38.1 °F 29.8 °F 26.4 °F 63% 30.06 in 10.0 mi West 13.8 mph - N/A   Clear
2:15 PM 38.8 °F 30.4 °F 27.1 °F 63% 30.06 in 10.0 mi West 15.0 mph 19.6 mph N/A   Clear
2:35 PM 39.2 °F 32.0 °F 27.0 °F 62% 30.06 in 10.0 mi West 11.5 mph 23.0 mph N/A   Scattered Clouds
2:55 PM 39.2 °F 31.2 °F 26.6 °F 61% 30.06 in 10.0 mi West 13.8 mph - N/A   Mostly Cloudy
3:15 PM 39.7 °F 31.5 °F 27.0 °F 60% 30.06 in 10.0 mi West 15.0 mph 20.7 mph N/A   Scattered Clouds
3:35 PM 39.6 °F 32.1 °F 26.2 °F 59% 30.07 in 10.0 mi WNW 12.7 mph - N/A   Scattered Clouds
3:55 PM 39.2 °F 32.0 °F 26.6 °F 61% 30.07 in 10.0 mi West 11.5 mph - N/A   Clear
4:15 PM 39.4 °F 31.8 °F 26.6 °F 60% 30.08 in 10.0 mi WNW 12.7 mph 20.7 mph N/A   Scattered Clouds
4:35 PM 39.2 °F 33.0 °F 26.1 °F 59% 30.08 in 10.0 mi WNW 9.2 mph 18.4 mph N/A   Clear
4:55 PM 38.7 °F 29.8 °F 24.8 °F 58% 30.08 in 10.0 mi WNW 16.1 mph 19.6 mph N/A   Clear
5:15 PM 37.8 °F 30.2 °F 24.8 °F 60% 30.08 in 10.0 mi WNW 11.5 mph - N/A   Clear
5:35 PM 35.6 °F 26.6 °F 28.4 °F 75% 30.09 in 10.0 mi North 13.8 mph - N/A   Mostly Cloudy
5:55 PM 33.3 °F 24.1 °F 28.0 °F 81% 30.10 in 10.0 mi NNW 12.7 mph - N/A   Scattered Clouds
6:15 PM 32.2 °F 22.7 °F 27.1 °F 82% 30.11 in 10.0 mi NNW 12.7 mph - N/A   Mostly Cloudy
6:35 PM 32.0 °F 22.5 °F 26.2 °F 79% 30.12 in 10.0 mi NNW 12.7 mph 18.4 mph N/A   Overcast
6:55 PM 31.6 °F 21.2 °F 25.7 °F 79% 30.13 in 10.0 mi NNW 15.0 mph - N/A   Scattered Clouds
7:15 PM 32.0 °F 23.6 °F 24.8 °F 75% 30.13 in 10.0 mi NNW 10.4 mph - N/A   Scattered Clouds
7:35 PM 30.2 °F 21.9 °F 24.8 °F 80% 30.13 in 10.0 mi North 9.2 mph - N/A   Scattered Clouds
7:55 PM 30.0 °F 24.1 °F 24.4 °F 80% 30.13 in 10.0 mi North 5.8 mph - N/A   Clear
8:15 PM 30.0 °F 23.2 °F 24.1 °F 79% 30.14 in 10.0 mi NNW 6.9 mph - N/A   Scattered Clouds
8:35 PM 29.8 °F 23.9 °F 24.8 °F 81% 30.13 in 10.0 mi NNW 5.8 mph - N/A   Scattered Clouds
8:55 PM 29.3 °F 24.3 °F 23.9 °F 80% 30.13 in 10.0 mi NNW 4.6 mph - N/A   Mostly Cloudy
9:15 PM 29.1 °F 25.4 °F 23.9 °F 81% 30.13 in 10.0 mi NW 3.5 mph - N/A   Mostly Cloudy
9:35 PM 29.3 °F 24.3 °F 23.0 °F 77% 30.12 in 10.0 mi NNW 4.6 mph - N/A   Overcast
9:55 PM 29.1 °F 25.4 °F 22.8 °F 77% 30.11 in 10.0 mi North 3.5 mph - N/A   Overcast
10:15 PM 29.3 °F 25.6 °F 23.5 °F 79% 30.11 in 10.0 mi North 3.5 mph - N/A   Overcast
10:35 PM 29.1 °F 25.4 °F 23.4 °F 79% 30.09 in 10.0 mi NNE 3.5 mph - N/A   Overcast
10:55 PM 28.8 °F - 22.6 °F 78% 30.09 in 10.0 mi Calm Calm - N/A   Mostly Cloudy
11:15 PM 28.9 °F - 23.5 °F 80% 30.10 in 10.0 mi Calm Calm - N/A   Overcast
11:35 PM 28.4 °F - 23.0 °F 80% 30.10 in 5.0 mi Calm Calm - N/A Snow Light Snow
11:55 PM 28.4 °F - 23.2 °F 81% 30.09 in 10.0 mi Calm Calm - N/A   Overcast